Location: Mococo
(38.0255°N, 122.1161°W)
Time: 00:03:18
(UTC+00:00)

Cosmos 2100 Rocket - Pass Details

Date: 24 May 2026
Orbit: 956 x 999 km, 82.9° (Epoch: 10 June)

Event Time Altitude Azimuth Distance (km) Brightness Sun altitude
Rises 04:37:30 0° 244° (WSW) 3,679 7.3 -13.6°
Reaches altitude 10° 04:42:13 10° 276° (W) 2,748 7.2 -14.3°
Maximum altitude 04:44:12 11° 294° (WNW) 2,646 7.5 -14.6°
Drops below altitude 10° 04:46:11 10° 313° (NW) 2,761 7.8 -14.9°
Sets 04:51:00 0° 346° (NNW) 3,723 8.1 -15.6°
